Weather History for Kimball, NE

Change the Weather History Date:

Thursday, February 7, 2013

  Actual Average (KSNY) Record (KSNY)
Temperature  
Mean Temperature 34 °F 30 °F  
Max Temperature 48 °F 43 °F 64 °F (2002)
Min Temperature 22 °F 18 °F -12 °F (1971)
Degree Days  
Heating Degree Days 30 35  
Month to date heating degree days 245  
Since 1 July heating degree days 3902  
Cooling Degree Days 0 0  
Month to date cooling degree days 0  
Year to date cooling degree days 0  
Moisture  
Dew Point 19 °F    
Average Humidity 62    
Maximum Humidity 94    
Minimum Humidity 25    
Precipitation  
Precipitation 0.00 in 0.01 in 0.25 in (1997)
Month to date precipitation 0.06  
Year to date precipitation 0.26  
Sea Level Pressure  
Sea Level Pressure 30.08 in    
Wind  
Wind Speed 7 mph (WSW)    
Max Wind Speed 14 mph    
Max Gust Speed -    
Visibility 10 miles    
Events      
T = Trace of Precipitation, MM = Missing Value Source: NWS Daily Summary

Daily Weather History Graph

Daily Weather History Graph

Search for Another Location

Airport:

Trip Planner

Search our weather history database for the weather conditions in past years. The results will help you decide how hot, cold, wet, or windy it might be!

Date:

Astronomy

Feb. 07, 2013 Rise Set
Actual Time 7:58 AM CST 6:19 PM CST
Civil Twilight 7:30 AM CST 6:48 PM CST
Nautical Twilight 6:57 AM CST 7:20 PM CST
Astronomical Twilight 6:25 AM CST 7:52 PM CST
Moon 5:41 AM CST (2/7) 3:45 PM CST (2/7)
Length of Visible Light 11h 17m
Length of Day
10h 20m
Waning Crescent, 9% of the Moon is Illuminated
Feb 7
Waning Crescent
Feb 10
New
Feb 17
First Quarter
Feb 25
Full
Mar 4
Last Quarter

Hourly Weather History & Observations

Time (CST) Temp. Windchill Dew Point Humidity Pressure Visibility Wind Dir Wind Speed Gust Speed Precip Events Conditions
12:35 AM 32.0 °F 24.8 °F 25.5 °F 77% 30.06 in 10.0 mi North 8.1 mph - N/A   Scattered Clouds
12:55 AM 32.0 °F 26.4 °F 26.4 °F 80% 30.07 in 10.0 mi NNW 5.8 mph - N/A   Mostly Cloudy
1:15 AM 32.0 °F 26.4 °F 27.1 °F 82% 30.07 in 10.0 mi North 5.8 mph - N/A   Overcast
1:35 AM 30.9 °F 26.2 °F 26.2 °F 83% 30.06 in 10.0 mi North 4.6 mph - N/A   Mostly Cloudy
1:55 AM 27.3 °F 22.0 °F 23.7 °F 86% 30.06 in 10.0 mi NW 4.6 mph - N/A   Scattered Clouds
2:15 AM 26.1 °F 21.9 °F 24.3 °F 93% 30.07 in 10.0 mi NNW 3.5 mph - N/A   Clear
2:35 AM 25.5 °F 21.3 °F 23.5 °F 92% 30.07 in 10.0 mi NW 3.5 mph - N/A   Clear
2:55 AM 23.5 °F 16.4 °F 21.9 °F 94% 30.08 in 10.0 mi WNW 5.8 mph - N/A   Clear
3:15 AM 23.9 °F 16.8 °F 22.5 °F 94% 30.08 in 10.0 mi WNW 5.8 mph - N/A   Clear
3:35 AM 23.4 °F 15.2 °F 21.7 °F 94% 30.08 in 10.0 mi WNW 6.9 mph - N/A   Clear
3:55 AM 22.1 °F 12.8 °F 20.5 °F 93% 30.08 in 10.0 mi WNW 8.1 mph - N/A   Clear
4:15 AM 24.1 °F 14.4 °F 21.9 °F 91% 30.07 in 10.0 mi WNW 9.2 mph - N/A   Clear
4:35 AM 22.1 °F 12.0 °F 20.1 °F 92% 30.07 in 10.0 mi WNW 9.2 mph - N/A   Clear
4:55 AM 23.5 °F 13.7 °F 21.6 °F 92% 30.07 in 10.0 mi WNW 9.2 mph - N/A   Scattered Clouds
5:15 AM 23.9 °F 15.8 °F 21.9 °F 92% 30.08 in 10.0 mi WNW 6.9 mph - N/A   Scattered Clouds
5:35 AM 23.9 °F 12.9 °F 21.9 °F 92% 30.08 in 10.0 mi WNW 11.5 mph - N/A   Clear
5:55 AM 23.9 °F 14.2 °F 21.6 °F 91% 30.08 in 10.0 mi WNW 9.2 mph - N/A   Clear
6:15 AM 24.8 °F 14.6 °F 22.5 °F 91% 30.08 in 10.0 mi WNW 10.4 mph - N/A   Clear
6:35 AM 24.8 °F 16.1 °F 22.3 °F 90% 30.09 in 10.0 mi NW 8.1 mph - N/A   Clear
6:55 AM 25.7 °F 15.1 °F 23.0 °F 89% 30.09 in 10.0 mi WNW 11.5 mph - N/A   Clear
7:15 AM 25.5 °F 15.5 °F 22.8 °F 89% 30.10 in 10.0 mi WNW 10.4 mph - N/A   Clear
7:35 AM 24.8 °F 13.4 °F 21.7 °F 88% 30.10 in 10.0 mi West 12.7 mph - N/A   Clear
7:55 AM 24.6 °F 12.7 °F 20.8 °F 86% 30.10 in 10.0 mi WNW 13.8 mph - N/A   Clear
8:15 AM 23.7 °F 12.1 °F 20.1 °F 86% 30.11 in 10.0 mi WNW 12.7 mph - N/A   Clear
8:35 AM 25.2 °F 13.9 °F 20.3 °F 82% 30.11 in 10.0 mi WNW 12.7 mph - N/A   Clear
8:55 AM 27.0 °F 16.1 °F 20.7 °F 77% 30.12 in 10.0 mi WNW 12.7 mph - N/A   Clear
9:15 AM 28.4 °F 18.5 °F 21.2 °F 74% 30.12 in 10.0 mi WNW 11.5 mph - N/A   Clear
9:35 AM 29.7 °F 20.1 °F 21.2 °F 71% 30.13 in 10.0 mi WNW 11.5 mph - N/A   Clear
9:55 AM 31.8 °F 22.8 °F 21.4 °F 65% 30.13 in 10.0 mi WNW 11.5 mph - N/A   Clear
10:15 AM 33.6 °F 25.0 °F 21.9 °F 62% 30.13 in 10.0 mi WNW 11.5 mph - N/A   Clear
10:35 AM 36.0 °F 27.5 °F 22.1 °F 57% 30.12 in 10.0 mi WNW 12.7 mph - N/A   Clear
10:55 AM 38.1 °F 31.7 °F 22.6 °F 54% 30.12 in 10.0 mi NW 9.2 mph - N/A   Clear
11:15 AM 39.7 °F 34.9 °F 23.0 °F 51% 30.13 in 10.0 mi NW 6.9 mph - N/A   Clear
11:35 AM 41.2 °F 37.3 °F 22.8 °F 48% 30.13 in 10.0 mi WNW 5.8 mph - N/A   Clear
11:55 AM 42.6 °F 38.4 °F 21.2 °F 43% 30.13 in 10.0 mi WNW 6.9 mph - N/A   Clear
12:15 PM 42.6 °F 39.9 °F 21.0 °F 42% 30.13 in 10.0 mi West 4.6 mph - N/A   Clear
12:35 PM 43.9 °F 42.3 °F 21.0 °F 40% 30.12 in 10.0 mi SW 3.5 mph - N/A   Clear
12:55 PM 43.7 °F 40.3 °F 17.6 °F 35% 30.11 in 10.0 mi WSW 5.8 mph - N/A   Clear
1:15 PM 44.8 °F - 17.8 °F 34% 30.10 in 10.0 mi Calm Calm - N/A   Clear
1:35 PM 45.1 °F - 16.9 °F 32% 30.10 in 10.0 mi Calm Calm - N/A   Clear
1:55 PM 45.9 °F - 15.8 °F 30% 30.09 in 10.0 mi Calm Calm - N/A   Clear
2:15 PM 46.6 °F - 15.8 °F 29% 30.08 in 10.0 mi WSW 9.2 mph - N/A   Clear
2:35 PM 46.2 °F 45.0 °F 15.8 °F 30% 30.08 in 10.0 mi WSW 3.5 mph - N/A   Clear
2:55 PM 47.7 °F - 15.4 °F 28% 30.07 in 10.0 mi West 4.6 mph - N/A   Clear
3:15 PM 47.5 °F - 13.6 °F 26% 30.06 in 10.0 mi SW 4.6 mph - N/A   Clear
3:35 PM 47.7 °F - 14.5 °F 27% 30.06 in 10.0 mi SW 4.6 mph - N/A   Clear
3:55 PM 47.7 °F - 13.6 °F 26% 30.06 in 10.0 mi SW 5.8 mph - N/A   Clear
4:15 PM 47.7 °F - 13.8 °F 26% 30.06 in 10.0 mi WSW 3.5 mph - N/A   Clear
4:35 PM 47.7 °F - 13.8 °F 26% 30.05 in 10.0 mi WSW 3.5 mph - N/A   Clear
4:55 PM 47.7 °F - 13.8 °F 26% 30.05 in 10.0 mi South 5.8 mph - N/A   Clear
5:15 PM 47.3 °F - 12.7 °F 25% 30.04 in 10.0 mi SSW 4.6 mph - N/A   Clear
5:35 PM 46.6 °F - 12.2 °F 25% 30.04 in 10.0 mi South 5.8 mph - N/A   Clear
5:55 PM 43.9 °F 39.9 °F 14.5 °F 31% 30.05 in 10.0 mi South 6.9 mph - N/A   Clear
6:15 PM 38.7 °F 32.9 °F 14.2 °F 37% 30.04 in 10.0 mi South 8.1 mph - N/A   Clear
6:35 PM 33.8 °F 27.0 °F 14.0 °F 44% 30.05 in 10.0 mi South 8.1 mph - N/A   Clear
6:55 PM 32.7 °F 25.7 °F 13.8 °F 46% 30.05 in 10.0 mi South 8.1 mph - N/A   Clear
7:15 PM 31.1 °F 23.7 °F 14.0 °F 49% 30.05 in 10.0 mi South 8.1 mph - N/A   Clear
7:35 PM 29.3 °F 21.5 °F 14.0 °F 53% 30.05 in 10.0 mi South 8.1 mph - N/A   Clear
7:55 PM 29.3 °F 20.2 °F 14.5 °F 54% 30.05 in 10.0 mi South 10.4 mph - N/A   Clear
8:15 PM 27.5 °F 19.3 °F 14.0 °F 57% 30.05 in 10.0 mi South 8.1 mph - N/A   Clear
8:35 PM 27.1 °F 17.5 °F 14.7 °F 60% 30.05 in 10.0 mi South 10.4 mph - N/A   Clear
8:55 PM 25.3 °F 16.0 °F 14.9 °F 65% 30.05 in 10.0 mi South 9.2 mph - N/A   Clear
9:15 PM 28.9 °F 22.8 °F 16.0 °F 58% 30.05 in 10.0 mi South 5.8 mph - N/A   Clear
9:35 PM 27.0 °F 19.5 °F 16.3 °F 64% 30.05 in 10.0 mi South 6.9 mph - N/A   Clear
9:55 PM 28.8 °F 20.2 °F 16.7 °F 61% 30.04 in 10.0 mi South 9.2 mph - N/A   Clear
10:15 PM 27.3 °F 17.7 °F 17.1 °F 65% 30.04 in 10.0 mi South 10.4 mph - N/A   Clear
10:35 PM 28.8 °F 19.0 °F 17.2 °F 62% 30.04 in 10.0 mi South 11.5 mph - N/A   Clear
10:55 PM 28.8 °F 19.0 °F 17.2 °F 62% 30.04 in 10.0 mi South 11.5 mph - N/A   Clear
11:15 PM 27.9 °F 19.1 °F 17.4 °F 65% 30.04 in 10.0 mi South 9.2 mph - N/A   Clear
11:35 PM 28.0 °F 19.3 °F 17.6 °F 65% 30.03 in 10.0 mi SSE 9.2 mph - N/A   Clear
11:55 PM 29.1 °F 20.0 °F 18.0 °F 63% 30.03 in 10.0 mi SSE 10.4 mph - N/A   Clear